• In Belarus
  • List of Countries
  • For 7 days
  • Water Temperature
  • Satellite Maps
  • Weather Map
  • Weather Widgets
  • user-avatar
    Login

    Hourly Weather Holguin

    Today, 10 December, Monday

    Time Temperature Precipitation Wind Pressure Humidity
    00:00 +24°C° 0 mm 2 mps 749 mmHg 82%
    01:00 +24°C° 0 mm 2 mps 749 mmHg 83%
    02:00 +24°C° 0 mm 2 mps 749 mmHg 84%
    03:00 +23°C° 0 mm 1 mps 749 mmHg 85%
    04:00 +23°C° 0 mm 1 mps 749 mmHg 86%
    05:00 +23°C° 0 mm 1 mps 749 mmHg 86%
    06:00 +23°C° 0 mm 1 mps 749 mmHg 85%
    07:00 +23°C° 0 mm 1 mps 749 mmHg 85%
    08:00 +26°C° 0 mm 1 mps 750 mmHg 76%
    09:00 +28°C° 0 mm 1 mps 750 mmHg 67%
    10:00 +31°C° 0 mm 1 mps 751 mmHg 58%
    11:00 +32°C° 0 mm 1 mps 750 mmHg 54%
    12:00 +33°C° 0 mm 1 mps 750 mmHg 50%
    13:00 +34°C° 0 mm 1 mps 750 mmHg 46%
    14:00 +32°C° 0.4 mm 2 mps 749 mmHg 51%
    15:00 +31°C° 0.4 mm 2 mps 749 mmHg 56%
    16:00 +30°C° 0.4 mm 2 mps 749 mmHg 62%
    17:00 +29°C° 0.2 mm 2 mps 749 mmHg 68%
    18:00 +27°C° 0.2 mm 2 mps 750 mmHg 75%
    19:00 +26°C° 0.2 mm 2 mps 750 mmHg 82%
    20:00 +25°C° 0.1 mm 2 mps 750 mmHg 83%
    21:00 +25°C° 0.1 mm 1 mps 750 mmHg 84%
    22:00 +25°C° 0.1 mm 1 mps 750 mmHg 85%
    23:00 +25°C° 0.1 mm 1 mps 750 mmHg 86%

    Tomorrow, 11 December, Tuesday

    Time Temperature Precipitation Wind Pressure Humidity
    00:00 +25°C° 0.1 mm 1 mps 750 mmHg 86%
    01:00 +24°C° 0.1 mm 1 mps 750 mmHg 87%
    02:00 +24°C° 0 mm 1 mps 750 mmHg 88%
    03:00 +24°C° 0 mm 1 mps 750 mmHg 89%
    04:00 +23°C° 0 mm 1 mps 750 mmHg 89%
    05:00 +23°C° 0 mm 1 mps 750 mmHg 90%
    06:00 +23°C° 0 mm 1 mps 750 mmHg 90%
    07:00 +23°C° 0 mm 1 mps 751 mmHg 91%
    08:00 +25°C° 0 mm 2 mps 752 mmHg 82%
    09:00 +27°C° 0 mm 2 mps 752 mmHg 73%
    10:00 +29°C° 0 mm 2 mps 753 mmHg 65%
    11:00 +29°C° 0.2 mm 3 mps 752 mmHg 64%
    12:00 +30°C° 0.2 mm 4 mps 752 mmHg 64%
    13:00 +30°C° 0.2 mm 5 mps 751 mmHg 63%
    14:00 +29°C° 0.4 mm 5 mps 751 mmHg 68%
    15:00 +28°C° 0.4 mm 6 mps 750 mmHg 72%
    16:00 +27°C° 0.4 mm 7 mps 750 mmHg 77%
    17:00 +26°C° 0.2 mm 7 mps 751 mmHg 80%
    18:00 +24°C° 0.2 mm 6 mps 751 mmHg 83%
    19:00 +23°C° 0.2 mm 6 mps 752 mmHg 86%
    20:00 +23°C° 0.1 mm 6 mps 752 mmHg 86%
    21:00 +22°C° 0.1 mm 5 mps 752 mmHg 86%
    22:00 +22°C° 0.1 mm 5 mps 752 mmHg 86%
    23:00 +22°C° 0.1 mm 5 mps 752 mmHg 86%

    Day after tomorrow, 12 December, Wednesday

    Time Temperature Precipitation Wind Pressure Humidity
    00:00 +22°C° 0.1 mm 5 mps 752 mmHg 86%
    01:00 +22°C° 0.1 mm 5 mps 751 mmHg 86%
    02:00 +22°C° 0 mm 5 mps 751 mmHg 86%
    03:00 +22°C° 0 mm 5 mps 751 mmHg 87%
    04:00 +21°C° 0 mm 5 mps 750 mmHg 87%
    05:00 +22°C° 0 mm 4 mps 751 mmHg 86%
    06:00 +22°C° 0 mm 4 mps 751 mmHg 86%
    07:00 +22°C° 0 mm 4 mps 752 mmHg 85%
    08:00 +22°C° 0.1 mm 4 mps 752 mmHg 82%
    09:00 +23°C° 0.1 mm 5 mps 752 mmHg 79%
    10:00 +25°C° 0.1 mm 5 mps 752 mmHg 77%
    11:00 +25°C° 0 mm 5 mps 752 mmHg 74%
    12:00 +26°C° 0 mm 5 mps 751 mmHg 72%
    13:00 +27°C° 0 mm 5 mps 751 mmHg 70%
    14:00 +27°C° 0.1 mm 5 mps 750 mmHg 71%
    15:00 +26°C° 0.1 mm 5 mps 750 mmHg 73%
    16:00 +26°C° 0.1 mm 5 mps 750 mmHg 74%
    17:00 +25°C° 0.1 mm 5 mps 750 mmHg 79%
    18:00 +25°C° 0.1 mm 4 mps 750 mmHg 83%
    19:00 +23°C° 0.1 mm 4 mps 751 mmHg 88%
    20:00 +23°C° 0.1 mm 4 mps 751 mmHg 89%
    21:00 +23°C° 0.1 mm 4 mps 751 mmHg 91%
    22:00 +22°C° 0.1 mm 4 mps 751 mmHg 92%
    23:00 +22°C° 0.1 mm 4 mps 751 mmHg 92%

    13 December, Thursday

    Time Temperature Precipitation Wind Pressure Humidity
    00:00 +22°C° 0.1 mm 4 mps 750 mmHg 92%
    01:00 +23°C° 0.1 mm 4 mps 750 mmHg 92%
    02:00 +22°C° 0.1 mm 4 mps 750 mmHg 92%
    03:00 +22°C° 0.1 mm 4 mps 750 mmHg 93%
    04:00 +22°C° 0.1 mm 4 mps 749 mmHg 93%
    05:00 +22°C° 0.2 mm 4 mps 750 mmHg 93%
    06:00 +22°C° 0.2 mm 4 mps 750 mmHg 92%
    07:00 +22°C° 0.2 mm 4 mps 751 mmHg 92%
    08:00 +25°C° 0.1 mm 5 mps 751 mmHg 85%
    09:00 +26°C° 0.1 mm 6 mps 751 mmHg 78%
    10:00 +28°C° 0.1 mm 7 mps 752 mmHg 71%
    11:00 +28°C° 0 mm 7 mps 751 mmHg 69%
    12:00 +29°C° 0 mm 7 mps 750 mmHg 66%
    13:00 +30°C° 0 mm 7 mps 750 mmHg 63%
    14:00 +30°C° 0 mm 6 mps 749 mmHg 62%
    15:00 +30°C° 0 mm 6 mps 749 mmHg 62%
    16:00 +30°C° 0 mm 5 mps 749 mmHg 61%
    17:00 +29°C° 0.1 mm 5 mps 749 mmHg 67%
    18:00 +27°C° 0.1 mm 5 mps 749 mmHg 73%
    19:00 +26°C° 0.1 mm 4 mps 750 mmHg 78%
    20:00 +26°C° 0.1 mm 4 mps 750 mmHg 80%
    21:00 +25°C° 0.1 mm 4 mps 750 mmHg 81%
    22:00 +25°C° 0.1 mm 4 mps 750 mmHg 82%
    23:00 +23°C° 0 mm 4 mps 750 mmHg 85%

    14 December, Friday

    Time Temperature Precipitation Wind Pressure Humidity
    00:00 +24°C° 0 mm 3 mps 749 mmHg 88%
    01:00 +22°C° 0 mm 3 mps 749 mmHg 91%
    02:00 +22°C° 0 mm 3 mps 749 mmHg 91%
    03:00 +22°C° 0 mm 3 mps 749 mmHg 92%
    04:00 +21°C° 0 mm 2 mps 749 mmHg 93%
    05:00 +21°C° 0 mm 2 mps 749 mmHg 92%
    06:00 +21°C° 0 mm 2 mps 749 mmHg 92%
    07:00 +21°C° 0 mm 2 mps 749 mmHg 91%
    08:00 +25°C° 0 mm 2 mps 750 mmHg 80%
    09:00 +27°C° 0 mm 2 mps 750 mmHg 68%
    10:00 +30°C° 0 mm 2 mps 751 mmHg 56%
    11:00 +31°C° 0 mm 2 mps 750 mmHg 50%
    12:00 +32°C° 0 mm 2 mps 750 mmHg 45%
    13:00 +34°C° 0 mm 2 mps 749 mmHg 39%
    14:00 +34°C° 0 mm 2 mps 749 mmHg 41%
    15:00 +34°C° 0 mm 2 mps 749 mmHg 43%
    16:00 +33°C° 0 mm 3 mps 748 mmHg 45%
    17:00 +30°C° 0.1 mm 3 mps 749 mmHg 55%
    18:00 +28°C° 0.1 mm 3 mps 749 mmHg 64%
    19:00 +26°C° 0.1 mm 3 mps 749 mmHg 74%
    20:00 +25°C° 0 mm 2 mps 749 mmHg 76%
    21:00 +25°C° 0 mm 2 mps 750 mmHg 78%
    22:00 +24°C° 0 mm 1 mps 750 mmHg 79%
    23:00 +24°C° 0 mm 2 mps 750 mmHg 79%

    15 December, Saturday

    Time Temperature Precipitation Wind Pressure Humidity
    00:00 +23°C° 0 mm 2 mps 749 mmHg 79%
    01:00 +23°C° 0 mm 2 mps 749 mmHg 78%
    02:00 +23°C° 0 mm 2 mps 749 mmHg 79%
    03:00 +23°C° 0 mm 1 mps 749 mmHg 79%
    04:00 +22°C° 0 mm 1 mps 749 mmHg 80%
    05:00 +22°C° 0 mm 1 mps 749 mmHg 81%
    06:00 +22°C° 0 mm 1 mps 750 mmHg 81%
    07:00 +23°C° 0 mm 1 mps 750 mmHg 82%
    08:00 +25°C° 0 mm 1 mps 750 mmHg 74%
    09:00 +27°C° 0 mm 1 mps 751 mmHg 66%
    10:00 +30°C° 0 mm 1 mps 751 mmHg 58%
    11:00 +31°C° 0 mm 1 mps 750 mmHg 53%
    12:00 +32°C° 0 mm 1 mps 750 mmHg 48%
    13:00 +34°C° 0 mm 2 mps 749 mmHg 43%
    14:00 +34°C° 0.1 mm 2 mps 749 mmHg 47%
    15:00 +33°C° 0.1 mm 3 mps 749 mmHg 51%
    16:00 +31°C° 0.1 mm 3 mps 749 mmHg 55%
    17:00 +29°C° 0.2 mm 3 mps 749 mmHg 64%
    18:00 +27°C° 0.2 mm 2 mps 750 mmHg 72%
    19:00 +26°C° 0.2 mm 2 mps 750 mmHg 81%
    20:00 +25°C° 0.1 mm 2 mps 750 mmHg 83%
    21:00 +25°C° 0.1 mm 1 mps 750 mmHg 85%
    22:00 +25°C° 0.1 mm 1 mps 750 mmHg 87%
    23:00 +24°C° 0.1 mm 1 mps 750 mmHg 87%
    Show more